カタログに戻る

FREGAT DEB

LostUNKNOWN
NORAD 46410·DEBRIS·🇷🇺 Russia

打ち上げ Jul 18, 2011 から Baikonur Cosmodrome

Loading…

次のパス (今後24時間)

TLE

古いSource: Space-Track

元期: Jan 3, 2023, 21:14 UTC

1 46410U 11037LR  23003.88516144 -.00006145  00000-0 -58903-1 0  9996
2 46410  51.6725 222.4851 2030993 103.2838 280.1085  9.66798814 32577

AllMySatでFREGAT DEBをリアルタイム追跡

Download on the App Store